Sigfox identifier Datetime Temperature Humidity SNR
003A8343 2018-10-09 08:55:45 20.6 38 14.2
003A8343 2018-10-09 07:54:23 20.6 38 13.9
003A8343 2018-10-09 06:53:01 20.6 38 13.7
003A8343 2018-10-09 05:51:42 20.5 38 13.6
003A8343 2018-10-09 04:50:11 20.5 38 13
003A8343 2018-10-09 01:46:00 20.5 37 13.2
003A8343 2018-10-09 00:44:37 20.6 37 12.8
003A8343 2018-10-08 23:43:14 20.6 37 12.2
003A8343 2018-10-08 22:41:51 20.5 37 12.2
003A8343 2018-10-08 21:40:28 20.5 37 12
003A8343 2018-10-08 20:39:04 20.6 37 11.7
003A8343 2018-10-08 18:36:19 20.6 37 12.1
003A8343 2018-10-08 17:34:58 20.5 37 11.7
003A8343 2018-10-08 16:33:31 20.5 36 11.8
003A8343 2018-10-08 15:32:11 20.6 36 11.8
003A8343 2018-10-08 12:27:56 20.6 36 12.1
003A8343 2018-10-08 10:25:10 20.4 34 11.8
003A8343 2018-10-08 08:22:30 20.4 35 11.8
003A8343 2018-10-08 07:21:06 20.4 35 11.4
003A8343 2018-10-08 06:19:44 20.4 35 11.6
003A8343 2018-10-08 05:18:23 20.4 36 11.7
003A8343 2018-10-08 04:17:01 20.4 36 11.7
003A8343 2018-10-08 03:15:37 20.4 36 11.6
003A8343 2018-10-08 02:14:19 20.4 37 11.8
003A8343 2018-10-08 01:12:54 20.4 37 11.7
003A8343 2018-10-08 00:11:30 20.4 37 11.9
003A8343 2018-10-07 23:10:12 20.5 37 11.9
003A8343 2018-10-07 22:08:46 20.6 38 11.7
003A8343 2018-10-07 21:07:28 20.6 38 12.2
003A8343 2018-10-07 20:06:08 20.6 38 11.9
003A8343 2018-10-07 19:04:41 20.6 38 11.9
003A8343 2018-10-07 18:03:20 20.6 38 11.9
003A8343 2018-10-07 17:01:58 20.6 38 12.2
003A8343 2018-10-07 16:00:37 20.6 38 12.2
003A8343 2018-10-07 14:59:14 20.6 38 12.6
003A8343 2018-10-07 13:57:54 20.6 38 12.6
003A8343 2018-10-07 12:56:33 20.6 38 12
003A8343 2018-10-07 11:55:05 20.6 39 12
003A8343 2018-10-07 10:53:38 20.6 39 12.2
003A8343 2018-10-07 09:52:17 20.6 39 12.2
003A8343 2018-10-07 08:50:48 20.6 39 11.8
003A8343 2018-10-07 07:49:24 20.6 39 12.4
003A8343 2018-10-07 06:48:03 20.6 39 12.7
003A8343 2018-10-07 05:46:39 20.6 39 12.6
003A8343 2018-10-07 04:45:14 20.6 39 12.4
003A8343 2018-10-07 03:43:52 20.6 40 12.7
003A8343 2018-10-07 02:42:26 20.7 40 12.9
003A8343 2018-10-07 01:40:59 20.8 40 13
003A8343 2018-10-07 00:39:35 20.8 40 12.9
003A8343 2018-10-06 23:38:11 20.8 40 13.1
003A8343 2018-10-06 22:36:49 20.8 40 13
003A8343 2018-10-06 21:35:24 20.8 40 13.3
003A8343 2018-10-06 20:33:58 20.8 40 13.7
003A8343 2018-10-06 19:32:34 20.8 40 13.4
003A8343 2018-10-06 18:31:09 20.8 40 13.5
003A8343 2018-10-06 17:29:46 20.8 40 13.5
003A8343 2018-10-06 16:28:25 20.8 40 13.9
003A8343 2018-10-06 15:26:59 20.8 40 13.8
003A8343 2018-10-06 14:25:31 20.8 40 13.9
003A8343 2018-10-06 13:24:04 20.8 40 13.7
003A8343 2018-10-06 12:22:37 20.8 40 13.9
003A8343 2018-10-06 11:21:11 20.8 40 14
003A8343 2018-10-06 10:19:42 20.8 41 14.2
003A8343 2018-10-06 09:18:16 20.8 41 14.1
003A8343 2018-10-06 08:16:52 20.8 41 14.2
003A8343 2018-10-06 07:15:28 21 41 14.4
003A8343 2018-10-06 06:14:06 21 42 14.1
003A8343 2018-10-06 05:12:38 21 42 13.9
003A8343 2018-10-06 04:11:17 21 42 14.2
003A8343 2018-10-06 03:09:48 21 42 14.5
003A8343 2018-10-06 02:08:22 21 43 14.2
003A8343 2018-10-06 01:06:56 21.1 43 14.3
003A8343 2018-10-06 00:05:29 21.3 43 14.4
003A8343 2018-10-05 23:04:03 21.2 44 14.7
003A8343 2018-10-05 22:02:39 21.3 44 14.9
003A8343 2018-10-05 21:01:09 21.3 44 15.1
003A8343 2018-10-05 19:59:46 21.5 45 15
003A8343 2018-10-05 18:58:17 21.4 45 13.9
003A8343 2018-10-05 17:56:51 21.5 46 14.8
003A8343 2018-10-05 16:55:26 21.5 46 14.6
003A8343 2018-10-05 15:53:58 21.5 48 16.2
003A8343 2018-10-05 14:52:28 21.7 51 13.2
003A8343 2018-10-05 13:50:54 21.4 57 0